Voltar ao catálogo

METEOR 2-5 DEB

AtivoPO
NORAD 38278·DEBRIS·🇷🇺 Russia

Lançado Oct 31, 1979 de Plesetsk Cosmodrome

Loading…

Próximas Passagens (próximas 24 horas)

TLE

AtualizadoSource: Space-Track

Época: Sep 14, 2026, 03:31 UTC

1 38278U 79095BY  26257.14690024  .00001630  00000-0  53151-3 0  9994
2 38278  81.1715  37.4495 0003262 180.8235 298.2757 14.38324530773397

Acompanhe METEOR 2-5 DEB em tempo real com AllMySat

Download on the App Store